GSAT0101 (GALILEO-PFM)

Last updated on Sun Apr 12 2026 00:02:38 GMT+0000 (Coordinated Universal Time)

1 37846U 11060A 26100.39120825 -.00000075 00000+0 00000+0 0 9996 2 37846 57.0151 343.6017 0004059 21.3391 338.7246 1.70475840 89961
UTC large
Height (km)
Speed (km/s)
/
Latitude / Longitude
Inclination (degrees)
Orbital Period (minutes)
Azimuth
Elevation
Range (km)
Doppler Factor

Next 0 passes for location: London (51.5072 / 0.1276)

Sorry there are no passes over London.
GSAT0101 (GALILEO-PFM)